Погода в Познани

Польша     52°24′29″N   16°55′38″E
темп.,
°C
ветер,
м/с
пор.,
м/с
влажн.,
%
обл.,
%
осадки,
мм/ч
давл.,
гПа
погр.,
м
25 июня, сб
сб2523:00+21вюв5145931 0.0 1011368
02:00+19вюв51364100 0.0 1011306
05:00+17юв4969100 0.0 1011201
08:00+21юв5755100 0.0 1012362
11:00+26юв4542100 0.0 1012922
14:00+30вюв5534100 0.0 10122264
17:00+29юв553589 0.0 10122249
20:00+27вюв474511 0.0 1012283
26 июня, вс
вс2623:00+23вюв5135060 0.0 1014316
02:00+19юв4116247 0.0 1015227
05:00+17вюв49698 0.0 1015178
08:00+23юв595210 0.0 1016456
11:00+28юв67375 0.0 10161642
14:00+31юв66315 0.0 10152156
17:00+31юв553117 0.0 10152500
20:00+27вюв47416 0.0 1015407
27 июня, пн
пн2723:00+21вюв496668 0.0 1016172
02:00+20вюв4106713 0.0 1016220
05:00+18вюв410765 0.0 1017216
08:00+24юв69584 0.0 1017459
11:00+29юв67410 0.0 10171431
14:00+31юв65340 0.0 10152309
17:00+32юв65320 0.0 10152742
20:00+28вюв69430 0.0 1015696
28 июня, вт
вт2823:00+24вюв5126026 0.0 1015329
02:00+20юв367711 0.2 1016125
05:00+19ююв368084 0.4 1016117
08:00+19зсз5887100 0.4 1018494
11:00+20сз5786100 2.4 1020740
14:00+19зсз5893100 3.9 1021488
17:00+17сз5995100 3.7 1022452
20:00+18с478516 3.7 1022635
29 июня, ср
ср2923:00+15ссв38956 0.0 1023253
02:00+14с36968 0.0 1023167
05:00+13с36968 0.0 1022137
08:00+18ссв347810 0.0 1022437
11:00+23ссв3359100 0.0 10211136
14:00+25в2252100 0.0 10191567
17:00+26в1252100 0.0 10181355
20:00+24юв2363100 0.1 1017111